CDT,Max TemperatureF,Mean TemperatureF,Min TemperatureF,Max Dew PointF,MeanDew PointF,Min DewpointF,Max Humidity, Mean Humidity, Min Humidity, Max Sea Level PressureIn, Mean Sea Level PressureIn, Min Sea Level PressureIn, Max VisibilityMiles, Mean VisibilityMiles, Min VisibilityMiles, Max Wind SpeedMPH, Mean Wind SpeedMPH, Max Gust SpeedMPH,PrecipitationIn, CloudCover, Events, WindDirDegrees
2013-4-1,42,35,27,26,18,12,72,53,36,30.19,30.08,29.90,10,10,10,21,11,25,0.00,2,,318
2013-4-2,44,34,23,21,15,10,82,51,26,30.30,30.25,30.19,10,10,10,17,8,24,0.00,1,,314
2013-4-3,46,34,22,20,14,5,73,46,21,30.44,30.37,30.30,10,10,10,13,5,17,0.00,0,,74
2013-4-4,59,42,25,31,21,17,76,46,22,30.32,30.12,29.98,10,10,10,13,7,18,0.00,0,,234
2013-4-5,49,43,36,32,23,16,79,50,29,30.22,30.14,30.00,10,10,10,18,11,24,T,2,,54
2013-4-6,69,52,35,48,31,22,80,46,27,30.14,29.86,29.61,10,10,5,38,17,44,0.13,4,Rain-Thunderstorm,173
2013-4-7,61,51,40,49,39,33,89,72,44,29.95,29.87,29.64,10,9,7,24,13,36,0.00,3,,288
2013-4-8,68,56,43,54,47,34,98,77,60,29.97,29.79,29.62,10,9,2,33,14,44,0.70,3,Rain-Thunderstorm,137
2013-4-9,66,54,42,55,45,40,95,87,71,29.98,29.90,29.81,10,8,4,21,11,28,0.14,7,Rain-Thunderstorm,61
2013-4-10,42,40,38,41,39,37,98,96,93,29.97,29.87,29.79,10,6,1,23,16,36,1.36,8,Rain-Thunderstorm,52
2013-4-11,52,46,39,51,43,38,100,96,89,29.85,29.63,29.57,10,6,1,22,14,34,0.20,8,Rain-Thunderstorm,69
2013-4-12,46,41,36,38,34,31,93,83,75,29.87,29.69,29.59,10,10,4,24,15,31,0.03,8,Rain,259
2013-4-13,47,41,34,34,31,29,92,73,56,29.99,29.92,29.86,10,10,5,21,14,29,T,7,Rain,272
2013-4-14,73,56,39,50,40,31,79,62,41,30.00,29.83,29.66,10,10,10,25,11,32,T,4,Rain,129
2013-4-15,66,56,45,55,49,43,96,81,60,29.99,29.83,29.69,10,10,4,31,18,46,0.38,8,Rain-Thunderstorm,229
2013-4-16,56,49,42,45,36,32,97,70,44,30.26,30.13,29.96,10,10,7,16,8,18,0.03,6,Rain-Thunderstorm,2
2013-4-17,53,48,42,50,40,32,99,82,62,30.26,30.08,29.79,10,8,1,28,13,36,2.27,8,Rain-Thunderstorm,74
2013-4-18,64,51,38,59,54,34,100,94,77,29.80,29.58,29.45,10,7,1,31,12,41,1.85,8,Rain-Thunderstorm,196
2013-4-19,39,36,33,33,30,29,84,77,73,29.93,29.67,29.52,10,10,7,32,23,39,T,8,Rain-Snow,265
2013-4-20,46,38,29,29,24,20,85,62,38,30.42,30.22,29.94,10,10,10,18,11,25,0.00,3,,320
2013-4-21,54,42,32,32,27,20,72,54,42,30.52,30.42,30.32,10,10,10,21,12,25,0.00,0,,148
2013-4-22,67,54,40,38,34,31,81,54,32,30.32,30.19,30.04,10,10,10,16,11,23,0.00,0,,162
2013-4-23,58,48,37,51,44,35,100,86,54,30.04,29.94,29.89,10,8,4,17,9,18,0.65,7,Rain,303
2013-4-24,50,43,36,36,33,28,95,73,47,30.13,30.03,29.93,10,10,7,17,10,24,0.03,6,Rain,310
2013-4-25,51,45,39,36,31,26,82,62,44,30.32,30.21,30.07,10,10,10,22,12,28,0.01,4,Rain,252
2013-4-26,67,53,38,46,38,28,82,62,45,30.35,30.30,30.24,10,10,10,24,11,30,0.00,1,,194
2013-4-27,69,56,42,49,42,35,100,62,31,30.30,30.17,30.00,10,10,4,17,7,22,0.01,3,Rain,158
2013-4-28,66,59,51,53,51,48,98,84,61,30.00,29.89,29.83,10,7,2,8,5,,0.06,7,Rain,69
2013-4-29,74,62,49,54,52,48,98,73,49,29.93,29.86,29.79,10,8,3,21,10,26,0.00,0,,199
2013-4-30,85,72,59,60,55,52,82,61,33,29.96,29.85,29.80,10,10,10,25,15,30,0.00,0,,191